EW1145 Weather Reports


Display with metric or nautical units.
time (UTC)temp
F
wind
direction
speed
MPH
gust
MPH
rain 1hr
in
rain 24hr
in
rain mn
in
humidity
%
barometer
mb
20260902111559 57 184 0.0 0.0 0.00 0.00 0.00 87 1009.2
20260902110059 57 184 0.0 1.0 0.00 0.00 0.00 88 1009.2
20260902104558 57 184 0.0 0.0 0.00 0.00 0.00 89 1009.3
20260902103100 57 184 0.0 0.0 0.00 0.00 0.00 89 1009.4
20260902101559 57 184 0.0 0.0 0.00 0.00 0.00 89 1009.4
20260902100054 57 184 0.0 0.0 0.00 0.00 0.00 89 1009.4
20260902094552 57 184 0.0 0.0 0.00 0.00 0.00 89 1009.6
20260902093118 57 184 0.0 0.0 0.00 0.00 0.00 89 1009.7
20260902091554 57 184 0.0 0.0 0.00 0.00 0.00 89 1009.8
20260902090056 56 184 0.0 0.0 0.00 0.00 0.00 89 1010.0
20260902084554 56 184 0.0 0.0 0.00 0.00 0.00 88 1010.1
20260902083050 57 184 0.0 0.0 0.00 0.00 0.00 87 1010.1
20260902081550 58 184 0.0 0.0 0.00 0.00 0.00 87 1010.2
20260902080039 58 184 0.0 0.0 0.00 0.00 0.00 86 1010.3
20260902074536 59 184 0.0 1.0 0.00 0.00 0.00 85 1010.3
20260902073035 60 186 0.0 2.0 0.00 0.00 0.00 83 1010.3
20260902071536 60 218 0.0 3.0 0.00 0.00 0.00 81 1010.4
20260902070029 60 218 0.0 5.0 0.00 0.00 0.00 81 1010.6
20260902064528 59 200 0.0 1.0 0.00 0.00 0.00 81 1010.7
20260902063031 59 200 0.0 0.0 0.00 0.00 0.00 81 1010.7
20260902061541 59 200 0.0 0.0 0.00 0.00 0.00 81 1010.6
20260902060027 59 200 0.0 0.0 0.00 0.00 0.00 82 1010.6
20260902054532 59 200 0.0 0.0 0.00 0.00 0.00 82 1010.7
20260902053029 59 200 0.0 0.0 0.00 0.00 0.00 81 1010.8
20260902051526 60 200 0.0 0.0 0.00 0.00 0.00 80 1010.9
20260902050027 60 200 0.0 0.0 0.00 0.00 0.00 78 1011.0
20260902044526 61 200 0.0 0.0 0.00 0.00 0.00 77 1011.0
20260902043025 61 200 0.0 1.0 0.00 0.00 0.00 76 1011.1
20260902041525 61 200 0.0 0.0 0.00 0.00 0.00 76 1011.1
20260902040025 61 200 0.0 0.0 0.00 0.00 0.00 76 1011.1
20260902034528 61 200 0.0 0.0 0.00 0.00 0.00 76 1011.0
20260902033023 62 200 0.0 0.0 0.00 0.00 0.00 74 1010.9
20260902031523 62 200 0.0 0.0 0.00 0.00 0.00 73 1010.8
20260902030025 63 200 0.0 1.0 0.00 0.00 0.00 72 1010.8
20260902024523 64 200 0.0 0.0 0.00 0.00 0.00 72 1010.9
20260902023021 64 200 0.0 0.0 0.00 0.00 0.00 71 1010.7
20260902021531 64 200 0.0 0.0 0.00 0.00 0.00 70 1010.7
20260902020023 65 202 0.0 3.0 0.00 0.00 0.00 69 1010.7
20260902014521 65 284 0.0 4.0 0.00 0.00 0.00 70 1010.6
20260902013020 65 178 0.0 1.0 0.00 0.00 0.00 71 1010.6
20260902011524 65 178 0.0 7.0 0.00 0.00 0.00 71 1010.5
20260902010021 65 195 0.0 4.0 0.00 0.00 0.00 72 1010.4
20260902004520 65 208 0.0 6.0 0.00 0.00 0.00 74 1010.4
20260902003024 66 184 0.0 4.0 0.00 0.00 0.00 74 1010.4
20260902001518 66 285 0.0 0.0 0.00 0.00 0.00 72 1010.4
20260902000018 65 285 0.0 1.0 0.00 0.00 0.00 73 1010.3
20260901234517 65 320 0.0 6.0 0.00 0.00 0.00 74 1010.5
20260901233018 65 232 0.0 4.0 0.00 0.00 0.00 74 1010.6
20260901231519 66 340 0.0 4.0 0.00 0.00 0.00 72 1010.6
20260901230018 67 193 2.0 6.0 0.00 0.00 0.00 71 1010.6
20260901224521 67 198 2.0 8.0 0.00 0.00 0.00 69 1010.5
20260901223017 66 189 0.0 6.0 0.00 0.00 0.00 70 1010.7
20260901221514 66 189 1.0 5.0 0.00 0.00 0.00 70 1010.6
20260901220027 67 216 0.0 4.0 0.00 0.00 0.00 67 1010.4
20260901214511 67 216 0.0 1.0 0.00 0.00 0.00 69 1010.4
20260901213012 66 217 1.0 7.0 0.00 0.00 0.00 71 1010.4
20260901211509 66 196 1.0 5.0 0.00 0.00 0.00 72 1010.5
20260901210012 66 202 1.0 6.0 0.00 0.00 0.00 72 1010.5
20260901204507 66 220 0.0 5.0 0.00 0.00 0.00 72 1010.6
20260901203008 66 220 0.0 6.0 0.00 0.00 0.00 70 1010.7
20260901201507 66 221 0.0 2.0 0.00 0.00 0.00 71 1010.7
20260901200006 66 221 0.0 5.0 0.00 0.00 0.00 71 1010.7
20260901194505 66 192 0.0 4.0 0.00 0.00 0.00 71 1010.8
20260901193002 65 192 0.0 4.0 0.00 0.00 0.00 73 1010.9
20260901191601 65 192 1.0 6.0 0.00 0.00 0.00 74 1011.0
20260901190111 64 224 0.0 4.0 0.00 0.00 0.00 76 1011.1
20260901184600 64 225 0.0 5.0 0.00 0.00 0.00 77 1011.3
20260901183059 64 82 0.0 6.0 0.00 0.00 0.00 76 1011.3
20260901181603 64 203 3.0 7.0 0.00 0.00 0.00 73 1011.3
20260901180059 64 209 0.0 6.0 0.00 0.00 0.00 75 1011.3
20260901174559 63 196 0.0 6.0 0.00 0.00 0.00 78 1011.3
20260901173052 63 205 0.0 1.0 0.00 0.00 0.00 79 1011.3
20260901171605 62 205 0.0 0.0 0.00 0.00 0.00 82 1011.3
20260901170055 61 205 0.0 4.0 0.00 0.00 0.00 82 1011.3
20260901164553 60 190 0.0 2.0 0.00 0.00 0.00 84 1011.3
20260901163047 60 236 0.0 1.0 0.00 0.00 0.00 85 1011.4
20260901161547 60 236 0.0 0.0 0.00 0.00 0.00 85 1011.3
20260901160046 59 236 0.0 4.0 0.00 0.00 0.00 86 1011.3
20260901154546 59 236 0.0 1.0 0.00 0.00 0.00 86 1011.5
20260901153052 58 236 0.0 1.0 0.00 0.00 0.00 87 1011.5
20260901151544 58 236 0.0 0.0 0.00 0.00 0.00 87 1011.5
20260901150043 58 236 0.0 0.0 0.00 0.00 0.00 88 1011.3
20260901144542 58 236 0.0 0.0 0.00 0.00 0.00 88 1011.2
20260901143041 58 236 0.0 0.0 0.00 0.00 0.00 88 1011.1
20260901141541 57 236 0.0 0.0 0.00 0.00 0.00 88 1011.0
20260901140039 57 236 0.0 0.0 0.00 0.00 0.00 88 1011.0
20260901134541 57 236 0.0 0.0 0.00 0.00 0.00 88 1010.9
20260901133037 57 236 0.0 0.0 0.00 0.00 0.00 88 1010.8
20260901131539 57 236 0.0 0.0 0.00 0.00 0.00 89 1010.8
20260901130037 57 236 0.0 0.0 0.00 0.00 0.00 88 1010.7
20260901124536 57 236 0.0 0.0 0.00 0.00 0.00 89 1010.7
20260901123038 56 236 0.0 0.0 0.00 0.00 0.00 90 1010.6
20260901121537 56 236 0.0 0.0 0.00 0.00 0.00 89 1010.7
20260901120033 56 236 0.0 0.0 0.00 0.00 0.00 91 1010.5
20260901114545 55 236 0.0 0.0 0.00 0.00 0.00 91 1010.6